PRIVATE WETTERSTATION BILLIGHEIM-ALLFELD                       ZURCK
Wetterdaten: Donnerstag, 14.07.2016
Datum Zeit Temp. A. Temp. A. min Temp. A. max Feuchte A. Luftdruck Regen Wind Richtung Richtung Sonnenschein ET Solar Taupunkt Windchill Windben Empfang
14.07.2016 00:00 13,1 C 13,1 C 13,1 C 89 % 1015,4 hPa 0,0 l/m 3,2 km/h (1 Bft) W 270 0 min 0,000 mm 0 W/m 11,3 C 13,1 C 11,3 km/h (2 Bft) 97 %
14.07.2016 00:10 13,0 C 13,0 C 13,1 C 88 % 1015,2 hPa 0,0 l/m 4,8 km/h (1 Bft) W 270 0 min 0,000 mm 0 W/m 11,1 C 13,0 C 16,1 km/h (3 Bft) 98 %
14.07.2016 00:20 12,9 C 12,9 C 13,0 C 88 % 1015,2 hPa 0,0 l/m 1,6 km/h (1 Bft) W 270 0 min 0,000 mm 0 W/m 11,0 C 12,9 C 8,0 km/h (2 Bft) 97 %
14.07.2016 00:30 12,9 C 12,9 C 12,9 C 89 % 1015,2 hPa 0,0 l/m 1,6 km/h (1 Bft) W-SW 247 0 min 0,000 mm 0 W/m 11,1 C 12,9 C 11,3 km/h (2 Bft) 98 %
14.07.2016 00:40 12,8 C 12,8 C 12,9 C 89 % 1015,3 hPa 0,0 l/m 1,6 km/h (1 Bft) W 270 0 min 0,000 mm 0 W/m 11,0 C 12,8 C 8,0 km/h (2 Bft) 97 %
14.07.2016 00:50 12,8 C 12,8 C 12,8 C 89 % 1015,2 hPa 0,0 l/m 0,0 km/h (0 Bft) W 270 0 min 0,000 mm 0 W/m 11,0 C 12,8 C 1,6 km/h (1 Bft) 98 %
14.07.2016 01:00 12,8 C 12,8 C 12,8 C 89 % 1015,1 hPa 0,0 l/m 0,0 km/h (0 Bft) W 270 0 min 0,000 mm 0 W/m 11,0 C 12,8 C 8,0 km/h (2 Bft) 98 %
14.07.2016 01:10 12,8 C 12,8 C 12,8 C 89 % 1015,1 hPa 0,0 l/m 1,6 km/h (1 Bft) W 270 0 min 0,000 mm 0 W/m 11,0 C 12,8 C 8,0 km/h (2 Bft) 97 %
14.07.2016 01:20 12,7 C 12,7 C 12,8 C 89 % 1015,0 hPa 0,0 l/m 0,0 km/h (0 Bft) W 270 0 min 0,000 mm 0 W/m 10,9 C 12,7 C 4,8 km/h (1 Bft) 98 %
14.07.2016 01:30 12,7 C 12,7 C 12,7 C 89 % 1015,0 hPa 0,0 l/m 0,0 km/h (0 Bft) W 270 0 min 0,000 mm 0 W/m 10,9 C 12,7 C 4,8 km/h (1 Bft) 97 %
14.07.2016 01:40 12,6 C 12,6 C 12,7 C 89 % 1015,0 hPa 0,0 l/m 0,0 km/h (0 Bft) W-NW 292 0 min 0,000 mm 0 W/m 10,8 C 12,6 C 6,4 km/h (2 Bft) 97 %
14.07.2016 01:50 12,6 C 12,6 C 12,6 C 89 % 1015,0 hPa 0,0 l/m 0,0 km/h (0 Bft) W-NW 292 0 min 0,000 mm 0 W/m 10,8 C 12,6 C 6,4 km/h (2 Bft) 97 %
14.07.2016 02:00 12,5 C 12,5 C 12,6 C 90 % 1015,0 hPa 0,0 l/m 3,2 km/h (1 Bft) W 270 0 min 0,000 mm 0 W/m 10,9 C 12,5 C 8,0 km/h (2 Bft) 97 %
14.07.2016 02:10 12,4 C 12,4 C 12,5 C 89 % 1015,2 hPa 0,0 l/m 1,6 km/h (1 Bft) W 270 0 min 0,000 mm 0 W/m 10,6 C 12,4 C 8,0 km/h (2 Bft) 98 %
14.07.2016 02:20 12,3 C 12,3 C 12,4 C 90 % 1015,2 hPa 0,0 l/m 0,0 km/h (0 Bft) W 270 0 min 0,000 mm 0 W/m 10,7 C 12,3 C 3,2 km/h (1 Bft) 96 %
14.07.2016 02:30 12,3 C 12,3 C 12,3 C 90 % 1015,1 hPa 0,0 l/m 0,0 km/h (0 Bft) W 270 0 min 0,000 mm 0 W/m 10,7 C 12,3 C 3,2 km/h (1 Bft) 98 %
14.07.2016 02:40 12,2 C 12,2 C 12,3 C 90 % 1015,0 hPa 0,0 l/m 1,6 km/h (1 Bft) W 270 0 min 0,000 mm 0 W/m 10,6 C 12,2 C 6,4 km/h (2 Bft) 97 %
14.07.2016 02:50 12,1 C 12,1 C 12,2 C 90 % 1015,0 hPa 0,0 l/m 1,6 km/h (1 Bft) W 270 0 min 0,000 mm 0 W/m 10,5 C 12,1 C 6,4 km/h (2 Bft) 98 %
14.07.2016 03:00 12,1 C 12,1 C 12,1 C 90 % 1015,1 hPa 0,0 l/m 0,0 km/h (0 Bft) W 270 0 min 0,000 mm 0 W/m 10,5 C 12,1 C 4,8 km/h (1 Bft) 97 %
14.07.2016 03:10 12,1 C 12,1 C 12,1 C 90 % 1015,0 hPa 0,0 l/m 1,6 km/h (1 Bft) W-NW 292 0 min 0,000 mm 0 W/m 10,5 C 12,1 C 8,0 km/h (2 Bft) 98 %
14.07.2016 03:20 12,1 C 12,1 C 12,1 C 90 % 1015,1 hPa 0,0 l/m 0,0 km/h (0 Bft) NW 315 0 min 0,000 mm 0 W/m 10,5 C 12,1 C 1,6 km/h (1 Bft) 98 %
14.07.2016 03:30 12,1 C 12,1 C 12,1 C 90 % 1015,0 hPa 0,0 l/m 1,6 km/h (1 Bft) NW 315 0 min 0,000 mm 0 W/m 10,5 C 12,1 C 6,4 km/h (2 Bft) 97 %
14.07.2016 03:40 12,1 C 12,1 C 12,2 C 90 % 1015,1 hPa 0,0 l/m 0,0 km/h (0 Bft) NW 315 0 min 0,000 mm 0 W/m 10,5 C 12,1 C 8,0 km/h (2 Bft) 98 %
14.07.2016 03:50 12,2 C 12,1 C 12,2 C 90 % 1015,0 hPa 0,0 l/m 3,2 km/h (1 Bft) W-NW 292 0 min 0,000 mm 0 W/m 10,6 C 12,2 C 9,7 km/h (2 Bft) 97 %
14.07.2016 04:00 12,2 C 12,2 C 12,2 C 90 % 1014,9 hPa 0,0 l/m 1,6 km/h (1 Bft) NW 315 0 min 0,000 mm 0 W/m 10,6 C 12,2 C 16,1 km/h (3 Bft) 98 %
14.07.2016 04:10 12,2 C 12,2 C 12,2 C 90 % 1014,9 hPa 0,0 l/m 3,2 km/h (1 Bft) W-NW 292 0 min 0,000 mm 0 W/m 10,6 C 12,2 C 11,3 km/h (2 Bft) 98 %
14.07.2016 04:20 12,2 C 12,2 C 12,2 C 90 % 1014,9 hPa 0,0 l/m 1,6 km/h (1 Bft) W-NW 292 0 min 0,000 mm 0 W/m 10,6 C 12,2 C 8,0 km/h (2 Bft) 98 %
14.07.2016 04:30 12,2 C 12,2 C 12,2 C 90 % 1014,9 hPa 0,0 l/m 3,2 km/h (1 Bft) W-NW 292 0 min 0,000 mm 0 W/m 10,6 C 12,2 C 8,0 km/h (2 Bft) 98 %
14.07.2016 04:40 12,2 C 12,2 C 12,2 C 90 % 1014,9 hPa 0,0 l/m 0,0 km/h (0 Bft) W-NW 292 0 min 0,000 mm 0 W/m 10,6 C 12,2 C 4,8 km/h (1 Bft) 99 %
14.07.2016 04:50 12,2 C 12,1 C 12,2 C 90 % 1014,9 hPa 0,0 l/m 3,2 km/h (1 Bft) W-NW 292 0 min 0,000 mm 0 W/m 10,6 C 12,2 C 8,0 km/h (2 Bft) 88 %
14.07.2016 05:00 12,1 C 12,1 C 12,2 C 90 % 1014,9 hPa 0,0 l/m 3,2 km/h (1 Bft) W-NW 292 0 min 0,000 mm 0 W/m 10,5 C 12,1 C 11,3 km/h (2 Bft) 98 %
14.07.2016 05:10 12,1 C 12,1 C 12,1 C 90 % 1015,0 hPa 0,0 l/m 1,6 km/h (1 Bft) NW 315 0 min 0,000 mm 0 W/m 10,5 C 12,1 C 9,7 km/h (2 Bft) 100 %
14.07.2016 05:20 12,1 C 12,1 C 12,2 C 90 % 1015,0 hPa 0,0 l/m 3,2 km/h (1 Bft) W-NW 292 0 min 0,000 mm 0 W/m 10,5 C 12,1 C 12,9 km/h (3 Bft) 99 %
14.07.2016 05:30 12,1 C 12,1 C 12,1 C 90 % 1015,0 hPa 0,0 l/m 3,2 km/h (1 Bft) W-NW 292 0 min 0,000 mm 0 W/m 10,5 C 12,1 C 9,7 km/h (2 Bft) 99 %
14.07.2016 05:40 12,1 C 12,1 C 12,1 C 90 % 1015,0 hPa 0,0 l/m 4,8 km/h (1 Bft) W-NW 292 0 min 0,000 mm 0 W/m 10,5 C 12,1 C 9,7 km/h (2 Bft) 100 %
14.07.2016 05:50 12,0 C 12,0 C 12,1 C 90 % 1014,9 hPa 0,0 l/m 8,0 km/h (2 Bft) W-NW 292 0 min 0,000 mm 0 W/m 10,4 C 11,0 C 20,9 km/h (4 Bft) 99 %
14.07.2016 06:00 12,0 C 11,9 C 12,0 C 90 % 1015,0 hPa 0,0 l/m 8,0 km/h (2 Bft) W-NW 292 0 min 0,000 mm 5 W/m 10,4 C 11,0 C 14,5 km/h (3 Bft) 100 %
14.07.2016 06:10 12,0 C 12,0 C 12,0 C 90 % 1015,1 hPa 0,0 l/m 4,8 km/h (1 Bft) W-NW 292 0 min 0,000 mm 5 W/m 10,4 C 12,0 C 16,1 km/h (3 Bft) 99 %
14.07.2016 06:20 12,0 C 12,0 C 12,0 C 90 % 1015,3 hPa 0,0 l/m 4,8 km/h (1 Bft) W-NW 292 0 min 0,000 mm 7 W/m 10,4 C 12,0 C 16,1 km/h (3 Bft) 100 %
14.07.2016 06:30 12,1 C 12,0 C 12,1 C 90 % 1015,3 hPa 0,0 l/m 3,2 km/h (1 Bft) W-NW 292 0 min 0,000 mm 7 W/m 10,5 C 12,1 C 9,7 km/h (2 Bft) 99 %
14.07.2016 06:40 12,1 C 12,0 C 12,1 C 90 % 1015,5 hPa 0,0 l/m 3,2 km/h (1 Bft) W-NW 292 0 min 0,000 mm 9 W/m 10,5 C 12,1 C 11,3 km/h (2 Bft) 100 %
14.07.2016 06:50 12,1 C 12,1 C 12,1 C 90 % 1015,5 hPa 0,0 l/m 6,4 km/h (2 Bft) NW 315 0 min 0,000 mm 12 W/m 10,5 C 12,1 C 19,3 km/h (3 Bft) 100 %
14.07.2016 07:00 12,1 C 12,1 C 12,1 C 90 % 1015,6 hPa 0,0 l/m 4,8 km/h (1 Bft) W-NW 292 0 min 0,000 mm 11 W/m 10,5 C 12,1 C 14,5 km/h (3 Bft) 99 %
14.07.2016 07:10 12,1 C 12,1 C 12,1 C 90 % 1015,7 hPa 0,0 l/m 3,2 km/h (1 Bft) W-NW 292 0 min 0,000 mm 9 W/m 10,5 C 12,1 C 11,3 km/h (2 Bft) 100 %
14.07.2016 07:20 12,1 C 12,1 C 12,1 C 90 % 1015,7 hPa 0,0 l/m 6,4 km/h (2 Bft) NW 315 0 min 0,000 mm 12 W/m 10,5 C 12,1 C 16,1 km/h (3 Bft) 99 %
14.07.2016 07:30 12,1 C 12,1 C 12,1 C 90 % 1015,9 hPa 0,0 l/m 6,4 km/h (2 Bft) NW 315 0 min 0,000 mm 9 W/m 10,5 C 12,1 C 16,1 km/h (3 Bft) 100 %
14.07.2016 07:40 12,1 C 12,1 C 12,1 C 90 % 1015,9 hPa 0,0 l/m 4,8 km/h (1 Bft) NW 315 0 min 0,000 mm 9 W/m 10,5 C 12,1 C 14,5 km/h (3 Bft) 99 %
14.07.2016 07:50 12,1 C 12,1 C 12,1 C 90 % 1015,9 hPa 0,0 l/m 4,8 km/h (1 Bft) NW 315 0 min 0,000 mm 23 W/m 10,5 C 12,1 C 14,5 km/h (3 Bft) 100 %
14.07.2016 08:00 12,1 C 12,1 C 12,1 C 90 % 1016,1 hPa 0,0 l/m 6,4 km/h (2 Bft) NW 315 0 min 0,025 mm 25 W/m 10,5 C 12,1 C 17,7 km/h (3 Bft) 100 %
14.07.2016 08:10 12,1 C 12,1 C 12,1 C 90 % 1016,2 hPa 0,0 l/m 6,4 km/h (2 Bft) NW 315 0 min 0,000 mm 51 W/m 10,5 C 12,1 C 20,9 km/h (4 Bft) 99 %
14.07.2016 08:20 12,1 C 12,1 C 12,1 C 90 % 1016,2 hPa 0,0 l/m 8,0 km/h (2 Bft) NW 315 0 min 0,000 mm 49 W/m 10,5 C 11,1 C 19,3 km/h (3 Bft) 100 %
14.07.2016 08:30 12,1 C 12,1 C 12,1 C 90 % 1016,3 hPa 0,0 l/m 9,7 km/h (2 Bft) NW 315 10 min 0,000 mm 153 W/m 10,5 C 10,1 C 16,1 km/h (3 Bft) 98 %
14.07.2016 08:40 12,4 C 12,1 C 12,4 C 90 % 1016,4 hPa 0,0 l/m 8,0 km/h (2 Bft) NW 315 10 min 0,000 mm 171 W/m 10,8 C 11,4 C 14,5 km/h (3 Bft) 99 %
14.07.2016 08:50 12,7 C 12,4 C 12,7 C 90 % 1016,4 hPa 0,0 l/m 6,4 km/h (2 Bft) NW 315 10 min 0,000 mm 188 W/m 11,1 C 12,7 C 16,1 km/h (3 Bft) 99 %
14.07.2016 09:00 12,8 C 12,7 C 12,8 C 90 % 1016,4 hPa 0,0 l/m 8,0 km/h (2 Bft) W-NW 292 10 min 0,051 mm 193 W/m 11,2 C 11,8 C 22,5 km/h (4 Bft) 100 %
14.07.2016 09:10 13,1 C 12,9 C 13,1 C 89 % 1016,5 hPa 0,0 l/m 6,4 km/h (2 Bft) NW 315 10 min 0,000 mm 251 W/m 11,3 C 13,1 C 19,3 km/h (3 Bft) 100 %
14.07.2016 09:20 13,3 C 13,1 C 13,3 C 88 % 1016,7 hPa 0,0 l/m 8,0 km/h (2 Bft) W-NW 292 10 min 0,000 mm 248 W/m 11,4 C 12,3 C 17,7 km/h (3 Bft) 100 %
14.07.2016 09:30 13,6 C 13,3 C 13,6 C 87 % 1016,7 hPa 0,0 l/m 8,0 km/h (2 Bft) NW 315 10 min 0,000 mm 274 W/m 11,5 C 12,6 C 19,3 km/h (3 Bft) 100 %
14.07.2016 09:40 13,8 C 13,6 C 13,8 C 87 % 1016,9 hPa 0,0 l/m 8,0 km/h (2 Bft) W-NW 292 10 min 0,000 mm 459 W/m 11,7 C 12,8 C 19,3 km/h (3 Bft) 100 %
14.07.2016 09:50 14,2 C 13,8 C 14,2 C 84 % 1016,9 hPa 0,0 l/m 9,7 km/h (2 Bft) NW 315 10 min 0,000 mm 366 W/m 11,5 C 12,4 C 19,3 km/h (3 Bft) 100 %
14.07.2016 10:00 14,5 C 14,2 C 14,5 C 86 % 1016,9 hPa 0,0 l/m 6,4 km/h (2 Bft) NW 315 10 min 0,152 mm 496 W/m 12,2 C 14,5 C 14,5 km/h (3 Bft) 100 %
14.07.2016 10:10 14,7 C 14,5 C 14,7 C 78 % 1016,9 hPa 0,0 l/m 14,5 km/h (3 Bft) NW 315 10 min 0,000 mm 844 W/m 10,9 C 11,0 C 27,4 km/h (4 Bft) 99 %
14.07.2016 10:20 15,1 C 14,7 C 15,1 C 75 % 1017,0 hPa 0,0 l/m 14,5 km/h (3 Bft) NW 315 10 min 0,000 mm 770 W/m 10,7 C 11,5 C 29,0 km/h (5 Bft) 99 %
14.07.2016 10:30 16,1 C 15,1 C 16,1 C 74 % 1017,0 hPa 0,0 l/m 11,3 km/h (2 Bft) NW 315 10 min 0,000 mm 923 W/m 11,5 C 13,8 C 22,5 km/h (4 Bft) 99 %
14.07.2016 10:40 16,2 C 16,1 C 16,2 C 73 % 1017,0 hPa 0,0 l/m 14,5 km/h (3 Bft) NW 315 10 min 0,000 mm 860 W/m 11,4 C 12,8 C 32,2 km/h (5 Bft) 100 %
14.07.2016 10:50 16,8 C 16,3 C 16,8 C 71 % 1017,1 hPa 0,0 l/m 11,3 km/h (2 Bft) NW 315 10 min 0,000 mm 865 W/m 11,5 C 14,6 C 33,8 km/h (5 Bft) 100 %
14.07.2016 11:00 16,7 C 16,7 C 16,8 C 68 % 1017,2 hPa 0,0 l/m 16,1 km/h (3 Bft) NW 315 10 min 0,381 mm 954 W/m 10,8 C 12,9 C 33,8 km/h (5 Bft) 100 %
14.07.2016 11:10 17,0 C 16,7 C 17,1 C 67 % 1017,2 hPa 0,0 l/m 11,3 km/h (2 Bft) W-NW 292 10 min 0,000 mm 1007 W/m 10,8 C 14,8 C 20,9 km/h (4 Bft) 99 %
14.07.2016 11:20 16,8 C 16,8 C 17,0 C 68 % 1017,2 hPa 0,0 l/m 9,7 km/h (2 Bft) NW 315 10 min 0,000 mm 439 W/m 10,9 C 15,2 C 19,3 km/h (3 Bft) 100 %
14.07.2016 11:30 16,2 C 16,2 C 16,8 C 71 % 1017,4 hPa 0,0 l/m 9,7 km/h (2 Bft) NW 315 10 min 0,000 mm 1044 W/m 10,9 C 14,6 C 19,3 km/h (3 Bft) 100 %
14.07.2016 11:40 16,9 C 16,2 C 16,9 C 71 % 1017,4 hPa 0,0 l/m 11,3 km/h (2 Bft) NW 315 10 min 0,000 mm 1197 W/m 11,6 C 14,7 C 24,1 km/h (4 Bft) 98 %
14.07.2016 11:50 17,2 C 16,9 C 17,3 C 64 % 1017,5 hPa 0,0 l/m 11,3 km/h (2 Bft) NW 315 10 min 0,000 mm 462 W/m 10,3 C 15,1 C 24,1 km/h (4 Bft) 100 %
14.07.2016 12:00 16,9 C 16,9 C 17,2 C 65 % 1017,5 hPa 0,0 l/m 8,0 km/h (2 Bft) NW 315 10 min 0,330 mm 765 W/m 10,3 C 16,1 C 17,7 km/h (3 Bft) 100 %
14.07.2016 12:10 17,1 C 16,9 C 17,1 C 70 % 1017,5 hPa 0,0 l/m 3,2 km/h (1 Bft) NW 315 10 min 0,000 mm 543 W/m 11,6 C 17,1 C 11,3 km/h (2 Bft) 100 %
14.07.2016 12:20 17,0 C 17,0 C 17,1 C 69 % 1017,5 hPa 0,0 l/m 8,0 km/h (2 Bft) W-NW 292 10 min 0,000 mm 1048 W/m 11,3 C 16,2 C 17,7 km/h (3 Bft) 99 %
14.07.2016 12:30 17,7 C 17,0 C 17,7 C 66 % 1017,4 hPa 0,0 l/m 6,4 km/h (2 Bft) NW 315 10 min 0,000 mm 1088 W/m 11,3 C 17,7 C 22,5 km/h (4 Bft) 100 %
14.07.2016 12:40 18,0 C 17,7 C 18,1 C 65 % 1017,4 hPa 0,0 l/m 9,7 km/h (2 Bft) NW 315 10 min 0,000 mm 315 W/m 11,3 C 16,5 C 25,7 km/h (4 Bft) 100 %
14.07.2016 12:50 17,9 C 17,8 C 18,0 C 62 % 1017,5 hPa 0,0 l/m 11,3 km/h (2 Bft) NW 315 10 min 0,000 mm 986 W/m 10,5 C 15,8 C 20,9 km/h (4 Bft) 100 %
14.07.2016 13:00 18,3 C 17,9 C 18,3 C 62 % 1017,2 hPa 0,0 l/m 8,0 km/h (2 Bft) NW 315 10 min 0,356 mm 1100 W/m 10,9 C 17,6 C 20,9 km/h (4 Bft) 100 %
14.07.2016 13:10 18,7 C 18,3 C 18,7 C 60 % 1017,3 hPa 0,0 l/m 12,9 km/h (3 Bft) NW 315 10 min 0,000 mm 958 W/m 10,8 C 16,3 C 27,4 km/h (4 Bft) 100 %
14.07.2016 13:20 19,1 C 18,7 C 19,1 C 58 % 1017,2 hPa 0,0 l/m 14,5 km/h (3 Bft) NW 315 10 min 0,000 mm 1023 W/m 10,6 C 16,3 C 27,4 km/h (4 Bft) 100 %
14.07.2016 13:30 18,8 C 18,8 C 19,1 C 58 % 1017,4 hPa 0,0 l/m 9,7 km/h (2 Bft) NW 315 10 min 0,000 mm 274 W/m 10,4 C 17,4 C 22,5 km/h (4 Bft) 100 %
14.07.2016 13:40 18,4 C 18,4 C 18,8 C 57 % 1017,3 hPa 0,0 l/m 16,1 km/h (3 Bft) NW 315 10 min 0,000 mm 443 W/m 9,7 C 15,0 C 32,2 km/h (5 Bft) 100 %
14.07.2016 13:50 18,1 C 18,1 C 18,4 C 62 % 1017,5 hPa 0,0 l/m 11,3 km/h (2 Bft) NW 315 10 min 0,000 mm 1046 W/m 10,7 C 16,1 C 24,1 km/h (4 Bft) 100 %
14.07.2016 14:00 18,8 C 18,1 C 18,8 C 59 % 1017,5 hPa 0,0 l/m 11,3 km/h (2 Bft) NW 315 10 min 0,406 mm 991 W/m 10,6 C 16,9 C 24,1 km/h (4 Bft) 100 %
14.07.2016 14:10 19,2 C 18,8 C 19,2 C 59 % 1017,1 hPa 0,0 l/m 8,0 km/h (2 Bft) NW 315 10 min 0,000 mm 976 W/m 11,0 C 18,5 C 17,7 km/h (3 Bft) 100 %
14.07.2016 14:20 19,6 C 19,2 C 19,7 C 53 % 1017,2 hPa 0,0 l/m 11,3 km/h (2 Bft) NW 315 10 min 0,000 mm 1037 W/m 9,8 C 17,8 C 24,1 km/h (4 Bft) 100 %
14.07.2016 14:30 18,9 C 18,9 C 19,6 C 56 % 1017,3 hPa 0,0 l/m 12,9 km/h (3 Bft) NW 315 10 min 0,000 mm 192 W/m 9,9 C 16,5 C 25,7 km/h (4 Bft) 100 %
14.07.2016 14:40 18,6 C 18,4 C 18,9 C 56 % 1017,2 hPa 0,0 l/m 11,3 km/h (2 Bft) W-NW 292 10 min 0,000 mm 981 W/m 9,6 C 16,6 C 22,5 km/h (4 Bft) 99 %
14.07.2016 14:50 19,1 C 18,6 C 19,1 C 56 % 1017,3 hPa 0,0 l/m 9,7 km/h (2 Bft) W-NW 292 10 min 0,000 mm 921 W/m 10,1 C 17,8 C 29,0 km/h (5 Bft) 100 %
14.07.2016 15:00 18,6 C 18,6 C 19,1 C 54 % 1017,3 hPa 0,0 l/m 11,3 km/h (2 Bft) W-NW 292 10 min 0,330 mm 281 W/m 9,1 C 16,6 C 25,7 km/h (4 Bft) 100 %
14.07.2016 15:10 18,1 C 18,1 C 18,6 C 59 % 1017,4 hPa 0,0 l/m 12,9 km/h (3 Bft) NW 315 10 min 0,000 mm 250 W/m 10,0 C 15,6 C 29,0 km/h (5 Bft) 100 %
14.07.2016 15:20 18,3 C 18,0 C 18,3 C 56 % 1017,4 hPa 0,0 l/m 14,5 km/h (3 Bft) NW 315 10 min 0,000 mm 1004 W/m 9,4 C 15,3 C 25,7 km/h (4 Bft) 100 %
14.07.2016 15:30 18,4 C 18,3 C 18,4 C 57 % 1017,6 hPa 0,0 l/m 14,5 km/h (3 Bft) NW 315 10 min 0,000 mm 538 W/m 9,7 C 15,4 C 25,7 km/h (4 Bft) 99 %
14.07.2016 15:40 18,9 C 18,4 C 18,9 C 57 % 1017,6 hPa 0,0 l/m 14,5 km/h (3 Bft) W-NW 292 10 min 0,000 mm 501 W/m 10,2 C 16,0 C 27,4 km/h (4 Bft) 100 %
14.07.2016 15:50 18,2 C 18,2 C 18,9 C 55 % 1017,8 hPa 0,0 l/m 16,1 km/h (3 Bft) NW 315 10 min 0,000 mm 162 W/m 9,0 C 14,8 C 29,0 km/h (5 Bft) 100 %
14.07.2016 16:00 17,9 C 17,8 C 18,2 C 61 % 1017,8 hPa 0,0 l/m 14,5 km/h (3 Bft) NW 315 10 min 0,254 mm 902 W/m 10,3 C 14,8 C 30,6 km/h (5 Bft) 100 %
14.07.2016 16:10 18,1 C 17,9 C 18,2 C 55 % 1017,9 hPa 0,0 l/m 19,3 km/h (3 Bft) W-NW 292 10 min 0,000 mm 884 W/m 8,9 C 13,9 C 32,2 km/h (5 Bft) 100 %
14.07.2016 16:20 18,0 C 17,9 C 18,1 C 59 % 1018,0 hPa 0,0 l/m 14,5 km/h (3 Bft) W-NW 292 10 min 0,000 mm 577 W/m 9,9 C 15,0 C 30,6 km/h (5 Bft) 100 %
14.07.2016 16:30 18,1 C 18,0 C 18,2 C 61 % 1018,0 hPa 0,0 l/m 11,3 km/h (2 Bft) W-NW 292 10 min 0,000 mm 622 W/m 10,5 C 16,1 C 22,5 km/h (4 Bft) 100 %
14.07.2016 16:40 17,8 C 17,8 C 18,1 C 59 % 1018,1 hPa 0,0 l/m 16,1 km/h (3 Bft) NW 315 10 min 0,000 mm 345 W/m 9,7 C 14,3 C 32,2 km/h (5 Bft) 100 %
14.07.2016 17:00 17,4 C 17,4 C 18,1 C 61 % 1018,2 hPa 0,0 l/m 13,2 km/h (3 Bft) W-NW 294 20 min 0,306 mm 357 W/m 9,8 C 14,6 C 25,7 km/h (4 Bft) 98 %
14.07.2016 17:10 17,8 C 17,4 C 17,8 C 62 % 1018,2 hPa 0,0 l/m 12,6 km/h (3 Bft) W-NW 298 10 min 0,000 mm 279 W/m 10,4 C 15,3 C 24,1 km/h (4 Bft) 98 %
14.07.2016 17:20 18,2 C 17,8 C 18,2 C 61 % 1018,2 hPa 0,0 l/m 11,8 km/h (2 Bft) W-NW 292 10 min 0,000 mm 330 W/m 10,6 C 16,0 C 22,5 km/h (4 Bft) 97 %
14.07.2016 17:30 18,6 C 18,2 C 18,6 C 57 % 1018,3 hPa 0,0 l/m 13,0 km/h (3 Bft) NW 319 10 min 0,000 mm 255 W/m 9,9 C 16,1 C 30,6 km/h (5 Bft) 97 %
14.07.2016 17:40 18,8 C 18,6 C 18,8 C 57 % 1018,3 hPa 0,0 l/m 10,5 km/h (2 Bft) W 281 0 min 0,000 mm 79 W/m 10,1 C 17,1 C 19,3 km/h (3 Bft) 98 %
14.07.2016 17:50 18,8 C 18,8 C 18,9 C 56 % 1018,3 hPa 0,0 l/m 10,0 km/h (2 Bft) W-SW 250 0 min 0,000 mm 62 W/m 9,8 C 17,3 C 29,0 km/h (5 Bft) 97 %
14.07.2016 18:00 18,5 C 18,5 C 18,8 C 57 % 1018,3 hPa 0,0 l/m 10,9 km/h (2 Bft) W 263 0 min 0,178 mm 56 W/m 9,8 C 16,7 C 25,7 km/h (4 Bft) 97 %
14.07.2016 18:10 18,2 C 18,2 C 18,5 C 56 % 1018,4 hPa 0,0 l/m 10,3 km/h (2 Bft) W-NW 297 0 min 0,000 mm 72 W/m 9,3 C 16,5 C 22,5 km/h (4 Bft) 97 %
14.07.2016 18:20 18,3 C 18,2 C 18,3 C 58 % 1018,4 hPa 0,0 l/m 10,9 km/h (2 Bft) NW 315 0 min 0,000 mm 49 W/m 9,9 C 16,4 C 20,9 km/h (4 Bft) 97 %
14.07.2016 18:30 18,1 C 18,1 C 18,3 C 55 % 1018,3 hPa 0,0 l/m 12,6 km/h (3 Bft) W-NW 303 0 min 0,000 mm 70 W/m 8,9 C 15,6 C 24,1 km/h (4 Bft) 98 %
14.07.2016 18:40 17,6 C 17,6 C 18,1 C 59 % 1018,4 hPa 0,0 l/m 9,5 km/h (2 Bft) W-NW 301 0 min 0,000 mm 130 W/m 9,5 C 16,2 C 22,5 km/h (4 Bft) 98 %
14.07.2016 18:50 17,8 C 17,6 C 17,8 C 60 % 1018,5 hPa 0,0 l/m 7,1 km/h (2 Bft) NW 311 10 min 0,000 mm 181 W/m 9,9 C 17,5 C 17,7 km/h (3 Bft) 97 %
14.07.2016 19:00 18,1 C 17,8 C 18,2 C 56 % 1018,5 hPa 0,0 l/m 9,5 km/h (2 Bft) W-SW 242 0 min 0,127 mm 49 W/m 9,2 C 16,7 C 22,5 km/h (4 Bft) 98 %
14.07.2016 19:10 17,8 C 17,8 C 18,1 C 56 % 1018,6 hPa 0,0 l/m 8,4 km/h (2 Bft) NW 313 0 min 0,000 mm 37 W/m 8,9 C 16,9 C 19,3 km/h (3 Bft) 97 %
14.07.2016 19:20 17,6 C 17,6 C 17,8 C 55 % 1018,7 hPa 0,0 l/m 7,5 km/h (2 Bft) W-NW 300 0 min 0,000 mm 144 W/m 8,5 C 17,1 C 17,7 km/h (3 Bft) 97 %
14.07.2016 19:30 17,4 C 17,4 C 17,6 C 56 % 1018,7 hPa 0,0 l/m 9,4 km/h (2 Bft) NW 323 10 min 0,000 mm 197 W/m 8,5 C 16,0 C 17,7 km/h (3 Bft) 97 %
14.07.2016 19:40 17,2 C 17,2 C 17,4 C 58 % 1018,7 hPa 0,0 l/m 6,2 km/h (2 Bft) NW 326 0 min 0,000 mm 33 W/m 8,9 C 17,2 C 20,9 km/h (4 Bft) 98 %
14.07.2016 19:50 17,0 C 17,0 C 17,2 C 58 % 1018,9 hPa 0,0 l/m 5,6 km/h (1 Bft) W-NW 300 0 min 0,000 mm 42 W/m 8,7 C 17,0 C 19,3 km/h (3 Bft) 97 %
14.07.2016 20:00 16,9 C 16,9 C 17,0 C 61 % 1018,9 hPa 0,0 l/m 7,0 km/h (2 Bft) NW 306 0 min 0,101 mm 35 W/m 9,3 C 16,6 C 17,7 km/h (3 Bft) 98 %
14.07.2016 20:10 16,6 C 16,6 C 16,9 C 66 % 1019,0 hPa 0,0 l/m 2,8 km/h (1 Bft) W-SW 254 0 min 0,000 mm 12 W/m 10,2 C 16,6 C 11,3 km/h (2 Bft) 99 %
14.07.2016 20:20 16,1 C 16,1 C 16,6 C 67 % 1019,1 hPa 0,0 l/m 4,0 km/h (1 Bft) W 273 0 min 0,000 mm 39 W/m 10,0 C 16,1 C 11,3 km/h (2 Bft) 99 %
14.07.2016 20:30 15,8 C 15,8 C 16,1 C 69 % 1019,0 hPa 0,0 l/m 1,6 km/h (1 Bft) W 264 0 min 0,000 mm 9 W/m 10,1 C 15,8 C 14,5 km/h (3 Bft) 100 %
14.07.2016 20:40 15,5 C 15,5 C 15,8 C 70 % 1019,1 hPa 0,0 l/m 1,7 km/h (1 Bft) W 265 0 min 0,000 mm 0 W/m 10,1 C 15,5 C 11,3 km/h (2 Bft) 100 %
14.07.2016 20:50 15,2 C 15,2 C 15,5 C 71 % 1019,2 hPa 0,0 l/m 0,5 km/h (0 Bft) W 267 0 min 0,000 mm 0 W/m 10,0 C 15,2 C 8,0 km/h (2 Bft) 100 %
14.07.2016 21:00 15,1 C 15,1 C 15,2 C 73 % 1019,5 hPa 0,0 l/m 0,7 km/h (0 Bft) W 267 0 min 0,026 mm 0 W/m 10,3 C 15,1 C 6,4 km/h (2 Bft) 100 %
14.07.2016 21:10 14,6 C 14,6 C 15,1 C 74 % 1019,6 hPa 0,0 l/m 0,0 km/h (0 Bft) W 270 0 min 0,000 mm 0 W/m 10,0 C 14,6 C 6,4 km/h (2 Bft) 100 %
14.07.2016 21:20 14,2 C 14,2 C 14,6 C 75 % 1019,5 hPa 0,0 l/m 1,6 km/h (1 Bft) W-SW 247 0 min 0,000 mm 0 W/m 9,8 C 14,2 C 11,3 km/h (2 Bft) 100 %
14.07.2016 21:30 13,9 C 13,9 C 14,2 C 77 % 1019,8 hPa 0,0 l/m 3,2 km/h (1 Bft) W-SW 247 0 min 0,000 mm 0 W/m 9,9 C 13,9 C 11,3 km/h (2 Bft) 100 %
14.07.2016 21:40 13,7 C 13,7 C 13,9 C 79 % 1020,0 hPa 0,0 l/m 1,6 km/h (1 Bft) W 270 0 min 0,000 mm 0 W/m 10,1 C 13,7 C 12,9 km/h (3 Bft) 100 %
14.07.2016 21:50 13,6 C 13,6 C 13,7 C 80 % 1020,1 hPa 0,0 l/m 1,6 km/h (1 Bft) W 270 0 min 0,000 mm 0 W/m 10,2 C 13,6 C 11,3 km/h (2 Bft) 100 %
14.07.2016 22:00 13,6 C 13,6 C 13,7 C 81 % 1020,2 hPa 0,0 l/m 1,6 km/h (1 Bft) W 270 0 min 0,025 mm 0 W/m 10,4 C 13,6 C 12,9 km/h (3 Bft) 100 %
14.07.2016 22:10 13,5 C 13,5 C 13,6 C 82 % 1020,3 hPa 0,0 l/m 1,6 km/h (1 Bft) W 270 0 min 0,000 mm 0 W/m 10,5 C 13,5 C 8,0 km/h (2 Bft) 99 %
14.07.2016 22:20 13,4 C 13,4 C 13,5 C 83 % 1020,4 hPa 0,0 l/m 1,6 km/h (1 Bft) W-SW 247 0 min 0,000 mm 0 W/m 10,6 C 13,4 C 9,7 km/h (2 Bft) 100 %
14.07.2016 22:30 13,3 C 13,3 C 13,4 C 83 % 1020,6 hPa 0,0 l/m 0,0 km/h (0 Bft) W-SW 247 0 min 0,000 mm 0 W/m 10,5 C 13,3 C 4,8 km/h (1 Bft) 99 %
14.07.2016 22:40 13,1 C 13,1 C 13,3 C 84 % 1020,7 hPa 0,0 l/m 1,6 km/h (1 Bft) W 270 0 min 0,000 mm 0 W/m 10,5 C 13,1 C 6,4 km/h (2 Bft) 100 %
14.07.2016 22:50 13,0 C 13,0 C 13,1 C 85 % 1020,7 hPa 0,0 l/m 0,0 km/h (0 Bft) W 270 0 min 0,000 mm 0 W/m 10,5 C 13,0 C 4,8 km/h (1 Bft) 100 %
14.07.2016 23:00 12,8 C 12,8 C 13,0 C 85 % 1020,8 hPa 0,0 l/m 0,0 km/h (0 Bft) N 0 0 min 0,025 mm 0 W/m 10,3 C 12,8 C 0,0 km/h (0 Bft) 99 %
14.07.2016 23:10 12,6 C 12,6 C 12,8 C 86 % 1020,9 hPa 0,0 l/m 0,0 km/h (0 Bft) W 270 0 min 0,000 mm 0 W/m 10,3 C 12,6 C 3,2 km/h (1 Bft) 100 %
14.07.2016 23:20 12,4 C 12,4 C 12,6 C 86 % 1020,9 hPa 0,0 l/m 0,0 km/h (0 Bft) W-SW 247 0 min 0,000 mm 0 W/m 10,1 C 12,4 C 6,4 km/h (2 Bft) 100 %
14.07.2016 23:30 12,3 C 12,3 C 12,4 C 86 % 1020,9 hPa 0,0 l/m 0,0 km/h (0 Bft) W-SW 247 0 min 0,000 mm 0 W/m 10,0 C 12,3 C 1,6 km/h (1 Bft) 100 %
14.07.2016 23:40 12,3 C 12,3 C 12,3 C 86 % 1021,1 hPa 0,0 l/m 0,0 km/h (0 Bft) W-SW 247 0 min 0,000 mm 0 W/m 10,0 C 12,3 C 1,6 km/h (1 Bft) 100 %
14.07.2016 23:50 12,2 C 12,2 C 12,3 C 86 % 1021,0 hPa 0,0 l/m 0,0 km/h (0 Bft) W-SW 247 0 min 0,000 mm 0 W/m 9,9 C 12,2 C 4,8 km/h (1 Bft) 91 %
_ Min-Zeit 06:00 06:00 06:00 14:20 04:00 - 00:50 - - - - - 19:20 08:30 23:00 04:50
Minimum _ 11,9 C 11,9 C 12,0 C 53 % 1014,9 hPa - 0,0 km/h (0 Bft) - - - - - 8,5 C 10,1 C 0,0 km/h (0 Bft) 88 %
_ Max-Zeit 14:20 14:20 14:20 02:00 23:40 00:00 16:10 - - 17:00 14:00 11:40 10:00 14:10 10:50 05:10
Maximum _ 19,7 C 19,2 C 19,7 C 90 % 1021,1 hPa 0,0 l/m 19,3 km/h
W-NW (3 Bft)
- - 20 min 0,406 mm 1197 W/m 12,2 C 18,5 C 33,8 km/h
NW (5 Bft)
100 %
Durchschnitt _ 14,9 C 14,8 C 15,0 C 76 % 1017,1 hPa #0,0 l/m 6,4 km/h (2 Bft) NW - #9:30 h #3,073 mm 410 W/m 10,4 C 14,0 C 16,2 km/h (3 Bft) 99 %
PRIVATE WETTERSTATION BILLIGHEIM-ALLFELD - www.neckar-odenwald-wetter.de - Holger Sonntag